Location: Newark
(43.4306°N, 0.3089°E)
Time: 15:51:23
(UTC+00:00)

Courier 1B - Visible Passes

Search period start: 23 August 2019 00:00
Search period end: 02 September 2019 00:00
Orbit: 962 x 1209 km, 28.3° (Epoch: 23 August)

Date Brightness Start Highest point End Pass type
(mag) Time Alt. Az. Time Alt. Az. Time Alt. Az.
23 Aug 9.0 20:12:36 10° SW 20:16:59 19° S 20:19:37 15° SSE visible
24 Aug 9.1 19:18:50 10° SW 19:23:31 20° S 19:28:06 10° SE visible
24 Aug 9.4 21:13:42 10° SW 21:15:57 13° SSW 21:15:57 13° SSW visible
25 Aug 9.3 20:19:19 10° SW 20:22:56 15° SSW 20:25:25 13° S visible
26 Aug 9.3 19:25:13 10° SW 19:29:29 18° SSW 19:33:40 10° SSE visible
27 Aug 9.6 20:27:23 10° SW 20:28:49 11° SSW 20:30:15 10° S visible
28 Aug 9.5 19:32:13 10° SW 19:35:24 14° SSW 19:38:31 10° S visible
